Location: Gebenbach
(49.5378°N, 11.8735°E)
Time: 12:19:04
(UTC+00:00)

Cosmos 1656 - Pass Details

Date: 29 October 2020
Orbit: 796 x 851 km, 71.1° (Epoch: 24 November)

Event Time Altitude Azimuth Distance (km) Brightness Sun altitude
Rises 16:33:55 0° 181° (S) 3,338 7.0 -6.9°
Reaches altitude 10° 16:36:28 10° 173° (S) 2,419 6.2 -7.3°
Maximum altitude 16:41:32 38° 107° (ESE) 1,257 4.2 -8.1°
Drops below altitude 10° 16:46:42 10° 41° (NE) 2,467 5.7 -8.9°
Enters shadow 16:49:15 - 34° (NE) 3,394 6.4 -9.3°
